• In Russia
  • List of Countries
  • For 7 days
  • Water Temperature
  • Satellite Maps
  • Weather Map
  • Weather Widgets
  • user-avatar
    Login

    Hourly Weather El Guna

    Today, 20 August, Monday

    Time Temperature Precipitation Wind Pressure Humidity
    00:00 +32°C° 0 mm 2 mps 728 mmHg 32%
    01:00 +31°C° 0 mm 2 mps 728 mmHg 33%
    02:00 +31°C° 0 mm 2 mps 728 mmHg 34%
    03:00 +30°C° 0 mm 2 mps 728 mmHg 36%
    04:00 +30°C° 0 mm 2 mps 728 mmHg 37%
    05:00 +29°C° 0 mm 2 mps 728 mmHg 39%
    06:00 +30°C° 0 mm 3 mps 728 mmHg 37%
    07:00 +31°C° 0 mm 3 mps 729 mmHg 36%
    08:00 +34°C° 0 mm 3 mps 729 mmHg 35%
    09:00 +35°C° 0 mm 3 mps 729 mmHg 30%
    10:00 +36°C° 0 mm 3 mps 729 mmHg 26%
    11:00 +38°C° 0 mm 3 mps 729 mmHg 21%
    12:00 +39°C° 0 mm 3 mps 729 mmHg 20%
    13:00 +41°C° 0 mm 4 mps 729 mmHg 18%
    14:00 +42°C° 0 mm 4 mps 728 mmHg 16%
    15:00 +41°C° 0 mm 4 mps 728 mmHg 18%
    16:00 +41°C° 0 mm 4 mps 728 mmHg 19%
    17:00 +40°C° 0 mm 4 mps 728 mmHg 21%
    18:00 +38°C° 0 mm 4 mps 728 mmHg 24%
    19:00 +37°C° 0 mm 3 mps 728 mmHg 27%
    20:00 +35°C° 0 mm 3 mps 729 mmHg 31%
    21:00 +35°C° 0 mm 2 mps 729 mmHg 31%
    22:00 +34°C° 0 mm 2 mps 729 mmHg 31%
    23:00 +34°C° 0 mm 2 mps 729 mmHg 31%

    Tomorrow, 21 August, Tuesday

    Time Temperature Precipitation Wind Pressure Humidity
    00:00 +34°C° 0 mm 2 mps 729 mmHg 31%
    01:00 +32°C° 0 mm 2 mps 729 mmHg 31%
    02:00 +32°C° 0 mm 2 mps 729 mmHg 30%
    03:00 +31°C° 0 mm 2 mps 729 mmHg 31%
    04:00 +31°C° 0 mm 2 mps 729 mmHg 32%
    05:00 +30°C° 0 mm 2 mps 729 mmHg 33%
    06:00 +33°C° 0 mm 3 mps 730 mmHg 31%
    07:00 +34°C° 0 mm 3 mps 730 mmHg 30%
    08:00 +35°C° 0 mm 3 mps 730 mmHg 29%
    09:00 +36°C° 0 mm 4 mps 730 mmHg 26%
    10:00 +37°C° 0 mm 4 mps 730 mmHg 23%
    11:00 +40°C° 0 mm 4 mps 731 mmHg 20%
    12:00 +41°C° 0 mm 4 mps 730 mmHg 19%
    13:00 +41°C° 0 mm 5 mps 730 mmHg 17%
    14:00 +42°C° 0 mm 5 mps 729 mmHg 16%
    15:00 +42°C° 0 mm 5 mps 729 mmHg 17%
    16:00 +41°C° 0 mm 5 mps 728 mmHg 18%
    17:00 +41°C° 0 mm 6 mps 728 mmHg 18%
    18:00 +40°C° 0 mm 5 mps 728 mmHg 21%
    19:00 +38°C° 0 mm 4 mps 729 mmHg 24%
    20:00 +36°C° 0 mm 3 mps 729 mmHg 26%
    21:00 +36°C° 0 mm 3 mps 729 mmHg 26%
    22:00 +35°C° 0 mm 3 mps 729 mmHg 27%
    23:00 +35°C° 0 mm 3 mps 729 mmHg 27%

    Day after tomorrow, 22 August, Wednesday

    Time Temperature Precipitation Wind Pressure Humidity
    00:00 +35°C° 0 mm 3 mps 729 mmHg 27%
    01:00 +34°C° 0 mm 3 mps 729 mmHg 27%
    02:00 +34°C° 0 mm 3 mps 729 mmHg 28%
    03:00 +33°C° 0 mm 3 mps 729 mmHg 30%
    04:00 +31°C° 0 mm 3 mps 729 mmHg 33%
    05:00 +31°C° 0 mm 3 mps 729 mmHg 35%
    06:00 +33°C° 0 mm 4 mps 729 mmHg 34%
    07:00 +34°C° 0 mm 4 mps 730 mmHg 32%
    08:00 +35°C° 0 mm 4 mps 730 mmHg 31%
    09:00 +36°C° 0 mm 5 mps 730 mmHg 28%
    10:00 +37°C° 0 mm 5 mps 730 mmHg 26%
    11:00 +40°C° 0 mm 5 mps 730 mmHg 23%
    12:00 +40°C° 0 mm 5 mps 729 mmHg 22%
    13:00 +41°C° 0 mm 5 mps 729 mmHg 20%
    14:00 +42°C° 0 mm 5 mps 728 mmHg 19%
    15:00 +42°C° 0 mm 6 mps 728 mmHg 20%
    16:00 +41°C° 0 mm 6 mps 728 mmHg 20%
    17:00 +41°C° 0 mm 6 mps 727 mmHg 21%
    18:00 +39°C° 0 mm 6 mps 728 mmHg 22%
    19:00 +37°C° 0 mm 5 mps 728 mmHg 24%
    20:00 +36°C° 0 mm 5 mps 728 mmHg 26%
    21:00 +35°C° 0 mm 4 mps 728 mmHg 26%
    22:00 +35°C° 0 mm 4 mps 728 mmHg 25%
    23:00 +35°C° 0 mm 4 mps 728 mmHg 25%

    23 August, Thursday

    Time Temperature Precipitation Wind Pressure Humidity
    00:00 +34°C° 0 mm 4 mps 728 mmHg 28%
    01:00 +33°C° 0 mm 4 mps 728 mmHg 31%
    02:00 +32°C° 0 mm 4 mps 728 mmHg 34%
    03:00 +32°C° 0 mm 4 mps 728 mmHg 37%
    04:00 +30°C° 0 mm 4 mps 728 mmHg 39%
    05:00 +30°C° 0 mm 4 mps 728 mmHg 42%
    06:00 +32°C° 0 mm 4 mps 728 mmHg 37%
    07:00 +33°C° 0 mm 4 mps 728 mmHg 33%
    08:00 +34°C° 0 mm 5 mps 728 mmHg 29%
    09:00 +36°C° 0 mm 5 mps 728 mmHg 25%
    10:00 +37°C° 0 mm 5 mps 728 mmHg 22%
    11:00 +40°C° 0 mm 5 mps 728 mmHg 19%
    12:00 +40°C° 0 mm 5 mps 728 mmHg 18%
    13:00 +41°C° 0 mm 5 mps 727 mmHg 18%
    14:00 +42°C° 0 mm 5 mps 727 mmHg 17%
    15:00 +41°C° 0 mm 5 mps 727 mmHg 18%
    16:00 +41°C° 0 mm 5 mps 727 mmHg 19%
    17:00 +41°C° 0 mm 5 mps 726 mmHg 20%
    18:00 +39°C° 0 mm 5 mps 727 mmHg 22%
    19:00 +37°C° 0 mm 4 mps 727 mmHg 24%
    20:00 +36°C° 0 mm 3 mps 727 mmHg 26%
    21:00 +36°C° 0 mm 3 mps 728 mmHg 26%
    22:00 +35°C° 0 mm 3 mps 728 mmHg 27%
    23:00 +35°C° 0 mm 3 mps 728 mmHg 27%

    24 August, Friday

    Time Temperature Precipitation Wind Pressure Humidity
    00:00 +34°C° 0 mm 3 mps 728 mmHg 29%
    01:00 +34°C° 0 mm 3 mps 727 mmHg 31%
    02:00 +33°C° 0 mm 3 mps 727 mmHg 33%
    03:00 +33°C° 0 mm 3 mps 727 mmHg 36%
    04:00 +31°C° 0 mm 3 mps 727 mmHg 39%
    05:00 +30°C° 0 mm 4 mps 727 mmHg 41%
    06:00 +32°C° 0 mm 4 mps 728 mmHg 38%
    07:00 +34°C° 0 mm 4 mps 728 mmHg 35%
    08:00 +35°C° 0 mm 4 mps 728 mmHg 32%
    09:00 +36°C° 0 mm 4 mps 728 mmHg 28%
    10:00 +38°C° 0 mm 4 mps 728 mmHg 25%
    11:00 +40°C° 0 mm 4 mps 728 mmHg 21%
    12:00 +41°C° 0 mm 4 mps 728 mmHg 20%
    13:00 +42°C° 0 mm 4 mps 728 mmHg 18%
    14:00 +43°C° 0 mm 4 mps 727 mmHg 17%
    15:00 +42°C° 0 mm 4 mps 727 mmHg 18%
    16:00 +42°C° 0 mm 4 mps 727 mmHg 19%
    17:00 +41°C° 0 mm 4 mps 727 mmHg 20%
    18:00 +39°C° 0 mm 3 mps 727 mmHg 23%
    19:00 +38°C° 0 mm 3 mps 728 mmHg 26%
    20:00 +36°C° 0 mm 3 mps 728 mmHg 29%
    21:00 +36°C° 0 mm 3 mps 728 mmHg 29%
    22:00 +35°C° 0 mm 2 mps 728 mmHg 29%
    23:00 +35°C° 0 mm 2 mps 728 mmHg 29%

    25 August, Saturday

    Time Temperature Precipitation Wind Pressure Humidity
    00:00 +35°C° 0 mm 3 mps 728 mmHg 30%
    01:00 +34°C° 0 mm 3 mps 727 mmHg 32%
    02:00 +34°C° 0 mm 3 mps 727 mmHg 33%
    03:00 +33°C° 0 mm 3 mps 727 mmHg 35%
    04:00 +33°C° 0 mm 3 mps 728 mmHg 37%
    05:00 +32°C° 0 mm 4 mps 728 mmHg 39%
    06:00 +33°C° 0 mm 4 mps 728 mmHg 36%
    07:00 +34°C° 0 mm 4 mps 729 mmHg 33%
    08:00 +36°C° 0 mm 4 mps 729 mmHg 30%
    09:00 +37°C° 0 mm 4 mps 729 mmHg 26%
    10:00 +40°C° 0 mm 4 mps 729 mmHg 23%
    11:00 +41°C° 0 mm 4 mps 729 mmHg 19%
    12:00 +42°C° 0 mm 4 mps 729 mmHg 18%
    13:00 +43°C° 0 mm 4 mps 728 mmHg 16%
    14:00 +45°C° 0 mm 5 mps 728 mmHg 15%
    15:00 +43°C° 0 mm 5 mps 728 mmHg 15%
    16:00 +43°C° 0 mm 5 mps 727 mmHg 16%
    17:00 +42°C° 0 mm 5 mps 727 mmHg 16%
    18:00 +41°C° 0 mm 4 mps 727 mmHg 19%
    19:00 +38°C° 0 mm 3 mps 728 mmHg 22%
    20:00 +37°C° 0 mm 3 mps 728 mmHg 24%
    21:00 +37°C° 0 mm 3 mps 728 mmHg 25%
    22:00 +36°C° 0 mm 3 mps 728 mmHg 25%
    23:00 +36°C° 0 mm 3 mps 728 mmHg 25%
    Show more